[[{"header":{"parameterUnit":"m.s-1","parameterCategory":1,"la1":30.2992,"la2":30.254,"lo1":-89.0895,"lo2":-89.0443,"dy":0.0025,"dx":0.0025,"nx":19,"ny":19,"refTime":"2026-04-22T09:00:00:Z","depth":0,"parameterNumber":2,"parameterNumberName":"U-component_of_WINDS"},"data":[0,0,0,-5.5501,-5.5503,-5.5593,-5.5593,-5.5733,-5.5734,0,0,0,0,0,0,0,0,0,0,0,-5.549,-5.5491,-5.55,-5.5503,-5.5593,-5.5594,-5.5733,-5.5734,0,0,0,0,0,0,0,0,0,0,0,-5.5489,-5.5491,-5.5493,-5.5503,-5.5593,-5.5594,-5.5732,-5.5655,0,0,0,0,0,0,0,0,0,0,-5.5563,-5.5569,-5.549,-5.5493,-5.5504,-5.5593,-5.5594,-5.5651,-5.566,-5.5703,0,-5.5746,0,-5.5743,-5.5745,-5.5746,0,0,0,-5.5491,-5.5561,-5.5572,-5.5493,-5.5505,-5.5593,-5.5549,-5.5656,-5.5666,-5.5715,-5.5748,-5.5752,-5.5745,-5.5746,-5.5747,-5.6038,-5.604,0,0,-5.5486,-5.5514,-5.5565,-5.5579,-5.5569,-5.5546,-5.5552,-5.5662,-5.5699,-5.5748,-5.5755,-5.5747,-5.5747,-5.5749,-5.6036,-5.6038,0,0,0,-5.548,-5.5511,-5.5518,-5.5574,-5.5589,-5.5549,-5.5556,-5.5694,-5.5694,-5.5756,-5.5749,-5.5748,-5.575,-5.6034,-5.6037,-5.6159,0,0,0,-5.5476,-5.5507,-5.5516,-5.5534,-5.5587,-5.5643,-5.5586,-5.5686,-5.5698,-5.5748,-5.5748,-5.5752,-5.6032,-5.6035,-5.6151,-5.6211,0,0,0,-5.5478,-5.5507,-5.5526,-5.5536,-5.5576,-5.564,-5.5646,-5.5688,-5.5694,-5.5746,-5.5752,-5.603,-5.6035,-5.6144,-5.6199,-5.6295,0,0,0,-5.5488,-5.5632,-5.5528,-5.5687,-5.5575,-5.5717,-5.5645,-5.5749,-5.5808,-5.5749,-5.6032,-5.6036,-5.6142,-5.6192,-5.6288,-5.6379,-5.6421,0,0,-5.5685,-5.5657,-5.5749,-5.5658,-5.5825,-5.5701,-5.5885,-5.5912,-5.5891,-5.599,-5.5996,-5.6154,-5.6198,-5.6294,-5.6647,-5.668,0,0,0,-5.5821,-5.5886,-5.5925,-5.5984,-5.601,-5.6036,-5.6032,-5.6043,-5.6126,-5.5948,-5.6214,-5.624,-5.6295,-5.6337,-5.6365,-5.641,-5.6058,-5.6057,-5.6057,-5.6138,-5.6105,-5.6254,-5.6233,-5.6291,-5.6288,-5.6331,-5.6344,-5.6292,-5.6356,-5.6384,-5.6603,-5.6654,-5.6675,-5.6722,-5.6432,-5.6432,-5.6433,-5.6433,-5.6423,-5.651,-5.6442,-5.6561,-5.6526,-5.6625,-5.6628,-5.6589,-5.6675,-5.6579,-5.6625,-5.652,-5.6712,-5.6751,-5.6442,-5.644,-5.6439,-5.6439,-5.6438,-5.6625,-5.6661,-5.6674,-5.6757,-5.6824,-5.6798,-5.6885,-5.685,-5.6816,-5.6863,-5.6888,-5.6886,-5.6877,-5.6878,-5.6879,-5.688,-5.688,-5.6881,-5.6881,-5.6829,-5.6839,-5.6918,-5.696,-5.6994,-5.7034,-5.7034,-5.7066,-5.7091,-5.7058,-5.7058,-5.7,-5.6738,-5.6672,-5.6893,-5.6891,-5.6889,-5.6888,-5.6887,-5.7126,-5.7054,-5.7176,-5.721,-5.7257,-5.7326,-5.7282,-5.735,-5.7371,-5.7415,-5.7349,-5.7162,-5.7129,-5.7106,-5.7051,-5.7356,-5.7356,-5.7356,-5.7356,-5.7295,-5.7277,-5.7393,-5.7451,-5.7503,-5.7476,-5.7613,-5.7615,-5.7606,-5.7617,-5.7568,-5.7493,-5.7471,-5.7451,-5.7421,-5.7369,-5.7748,-5.7748,-5.7749,-5.7475,-5.7461,-5.7585,-5.7576,-5.7611,-5.7641,-5.7769,-5.7837,-5.7811,-5.7764,-5.7624,-5.7608,-5.7486,-5.7448,-5.7394,-5.7348,-5.7251,0,0]},{"header":{"parameterUnit":"m.s-1","parameterCategory":1,"la1":30.2992,"la2":30.254,"lo1":-89.0895,"lo2":-89.0443,"dy":0.0025,"dx":0.0025,"nx":19,"ny":19,"refTime":"2026-04-22T09:00:00:Z","depth":0,"parameterNumber":3,"parameterNumberName":"V-component_of_WINDS"},"data":[0,0,0,2.9417,2.9416,2.9371,2.9371,2.9316,2.9316,0,0,0,0,0,0,0,0,0,0,0,2.9434,2.9434,2.9417,2.9416,2.9371,2.9371,2.9317,2.9316,0,0,0,0,0,0,0,0,0,0,0,2.9434,2.9434,2.9434,2.9416,2.9371,2.9371,2.9317,2.9349,0,0,0,0,0,0,0,0,0,0,2.9391,2.9413,2.9434,2.9434,2.9415,2.9371,2.9371,2.935,2.9347,2.9339,0,2.9336,0,2.9325,2.9313,2.9313,0,0,0,2.9411,2.9416,2.94,2.9434,2.9415,2.9371,2.939,2.9348,2.9344,2.9335,2.9335,2.9333,2.9325,2.9313,2.9312,2.929,2.929,0,0,2.9414,2.9428,2.9403,2.9398,2.9408,2.9391,2.9389,2.9346,2.9346,2.9335,2.9331,2.9324,2.9312,2.9312,2.929,2.929,0,0,0,2.9424,2.943,2.9415,2.94,2.9392,2.939,2.9387,2.9348,2.9342,2.9331,2.9323,2.9312,2.9311,2.9289,2.929,2.9309,0,0,0,2.9425,2.9436,2.9416,2.9424,2.9393,2.937,2.939,2.9345,2.934,2.9323,2.9312,2.9311,2.9289,2.929,2.9308,2.9315,0,0,0,2.9436,2.9437,2.9432,2.9425,2.9407,2.937,2.9362,2.9344,2.9335,2.9313,2.9311,2.9289,2.929,2.9308,2.9314,2.9313,0,0,0,2.945,2.9448,2.9433,2.9427,2.9407,2.9384,2.9362,2.9343,2.9326,2.9312,2.9289,2.929,2.9307,2.9313,2.9313,2.9315,2.9318,0,0,2.9455,2.9449,2.9445,2.943,2.9413,2.939,2.9374,2.9344,2.9327,2.9303,2.9302,2.9308,2.9314,2.9313,2.933,2.9332,0,0,0,2.9451,2.9448,2.944,2.9427,2.9406,2.9388,2.936,2.9348,2.9328,2.9319,2.9308,2.9311,2.931,2.931,2.9312,2.931,2.9291,2.9291,2.9291,2.9475,2.9458,2.945,2.9427,2.9414,2.9386,2.9373,2.9353,2.9336,2.9334,2.9326,2.9339,2.934,2.9342,2.934,2.9327,2.9327,2.9327,2.9327,2.9481,2.9474,2.9455,2.9441,2.9422,2.9408,2.9381,2.937,2.9354,2.9343,2.9341,2.9331,2.9345,2.9343,2.9328,2.9328,2.9328,2.9328,2.9328,2.9494,2.9488,2.9477,2.9457,2.9443,2.942,2.9406,2.9388,2.937,2.9369,2.9359,2.9358,2.9355,2.9366,2.9366,2.9366,2.9366,2.9366,2.9366,2.9512,2.95,2.9492,2.9472,2.9462,2.9446,2.9419,2.9408,2.939,2.9378,2.9378,2.9361,2.9351,2.9348,2.9367,2.9367,2.9366,2.9366,2.9366,2.9523,2.9518,2.9506,2.9496,2.9472,2.9459,2.9438,2.9417,2.9405,2.9398,2.9383,2.9379,2.937,2.9368,2.9366,2.9388,2.9388,2.9388,2.9388,2.9534,2.9529,2.9514,2.9499,2.9483,2.9463,2.9449,2.9428,2.9405,2.9397,2.9391,2.9387,2.9386,2.9378,2.9376,2.9373,2.9396,2.9396,2.9396,2.9539,2.9532,2.9524,2.9505,2.9485,2.9468,2.9453,2.9436,2.9409,2.9396,2.9389,2.9389,2.9382,2.938,2.9366,2.9363,2.9358,0,0]}]]